Regional Weather Roundup
Issued by NWS Sioux Falls, SD

Home | Current Version | Previous Version | Text Only | Print | Product List | Glossary Off
Versions: 1 2 3 4 5 6 7 8 9 10 11 12 13 14 15 16 17 18 19 20 21 22 23 24 25 26 27 28 29 30 31 32 33 34 35 36 37 38 39 40 41 42 43 44 45 46 47 48 49 50

000
ASUS43 KFSD 300810
RWRFSD

WEATHER ROUNDUP FOR SE SOUTH DAKOTA/SW MINNESOTA/NW IOWA
NATIONAL WEATHER SERVICE SIOUX FALLS SD
300 AM CDT SAT APR 30 2016

NOTE: "FAIR" INDICATES FEW OR NO CLOUDS BELOW 12,000 FEET WITH NO
SIGNIFICANT WEATHER AND OR OBSTRUCTIONS TO VISIBILITY.


SDZ038>040-050-052>070-300900-
SOUTHEAST SOUTH DAKOTA

CITY           SKY/WX    TMP DP  RH WIND       PRES   REMARKS
BROOKINGS      PTCLDY    37  35  92 NE8       30.02F
CHAMBERLAIN    CLOUDY    46  42  88 NE6       29.98F
HURON          PTCLDY    42  39  89 NE9       30.01F
MADISON        FAIR      37  37 100 NE8       30.00F
MITCHELL       PTCLDY    44  41  89 NE10      29.99F
SIOUX FALLS    CLOUDY    43  39  86 NE12      29.98F
WINNER         CLOUDY    44  39  82 NE10      29.96F
YANKTON        CLOUDY    45  37  76 NE15      29.93F
$$

MNZ071-072-080-081-089-090-097-098-300900-
SOUTHWEST MINNESOTA

CITY           SKY/WX    TMP DP  RH WIND       PRES   REMARKS
FAIRMONT       CLOUDY    43  30  61 NE9       30.03F
JACKSON        CLOUDY    45  37  76 E14G20    30.02F
LUVERNE        PTCLDY    41  36  81 NE9       30.00F
MARSHALL       CLOUDY    38  37  97 NE6       30.07F
MONTEVIDEO     PTCLDY    39  36  87 SE7       30.11S
REDWOOD FALLS  MOCLDY    42  38  85 E6        30.08F
TRACY          CLOUDY    38  37  97 NE6       30.05F
WINDOM         CLOUDY    43  39  87 NE10      30.02F
WORTHINGTON    CLOUDY    41  38  89 NE13      30.01F
$$

IAZ001>003-012>014-020>022-031-032-NEZ013-014-SDZ071-300900-
NORTHWEST IOWA

CITY           SKY/WX    TMP DP  RH WIND       PRES   REMARKS
CHEROKEE       CLOUDY    44  41  90 NE14G21   29.94F
DENISON        MIX PCPN  43  41  93 E17G32    29.86F
ESTHERVILLE    CLOUDY    43  40  89 NE12      30.01F
LE MARS        CLOUDY    45  41  87 NE12G21   29.95F
ORANGE CITY    DRIZZLE   45  39  81 E12G17    29.94F
SHELDON        CLOUDY    45  41  87 E16       29.96F
SIOUX CITY     CLOUDY    47  39  74 E16       29.91F
SPENCER        CLOUDY    45  39  79 E17       29.98F
STORM LAKE     CLOUDY    43  41  93 E18G26    29.94F
$$

ABBREVIATIONS USED IN REMARKS
   TC - TEMPERATURE IN CELSIUS
  WCI - WIND CHILL INDEX
   HX - HEAT INDEX
  VSB - VISIBILITY





USA.gov is the U.S. government's official web portal to all federal, state and local government web resources and services.